Terminal Aerodrome Forecast
Issued by NWS Milwaukee/Sullivan, WI

Home | Current Version | Previous Version | Text Only | Print | Product List | Glossary On
Versions: 1 2 3 4 5 6 7 8 9 10 11 12 13 14 15 16 17 18 19 20 21 22 23 24 25 26 27 28 29 30 31 32 33 34 35 36 37 38 39 40 41 42 43 44 45 46 47 48 49 50
000
FTUS43 KMKX 210520
TAFMKE
TAF
KMKE 210520Z 2106/2212 35008KT P6SM SCT030 OVC045
     FM210900 35012KT P6SM SCT030 OVC040
     FM211500 01011KT P6SM SCT018 BKN030
     FM212100 01013KT P6SM SCT030
     FM220100 03009KT P6SM SCT200
     FM220700 05005KT P6SM SCT130=

USA.gov is the U.S. government's official web portal to all federal, state and local government web resources and services.